RH
78 67 55 53 53 52 43 33 26 19 16 13 12 10 10 10 12 15 12 12 11 10 10 12 12 14 15 15 14 13 13 12 12 10 9 8 6 4 3 3 3 3 3 3 4 5 6 6 6
75 76 68 54 53 51 51 43 34 27 21 19 16 14 14 14 14 14 14 15 15 15 16 18 19 18 18 16 15 14 13 12 12 12 12 12 11 10 8 6 5 4 3 4 4 4 4 5 5
90 68 68 66 51 50 54 49 43 36 30 25 22 20 18 19 17 17 18 19 20 22 23 22 20 17 14 14 13 12 10 8 7 7 7 7 8 9 10 11 11 11 11 8 6 6 5 6 6
96 84 62 58 58 47 53 46 47 43 38 33 28 25 23 22 22 23 25 26 25 25 22 17 14 13 11 10 8 7 6 5 4 4 4 4 4 4 3 4 4 5 6 7 9 10 11 12 12
93 81 72 54 55 54 46 46 47 46 43 40 35 32 31 31 30 30 29 28 25 21 17 15 13 11 10 9 8 6 6 5 5 4 3 3 3 3 3 3 3 4 4 5 6 7 8 10 10
91 69 70 54 48 55 49 41 44 44 44 42 42 38 35 34 32 28 25 24 20 17 17 16 13 10 9 7 6 6 6 4 4 4 3 3 4 5 8 10 11 10 8 7 7 7 7 10 10
87 62 57 61 40 50 51 42 38 41 42 44 38 37 32 28 24 19 16 16 17 16 15 14 12 10 8 7 6 6 6 4 3 4 5 6 12 17 19 17 15 13 9 6 6 6 6 8 13
97 97 71 56 42 40 48 44 36 35 35 33 30 24 22 19 18 16 16 15 14 13 12 11 10 9 8 7 7 6 4 4 5 4 6 14 21 24 23 21 19 16 12 11 10 8 8 9 10
96 98 85 56 40 38 43 44 35 30 28 24 20 20 18 16 15 14 14 13 12 11 10 9 9 8 8 7 6 5 4 5 6 6 5 11 20 24 27 26 24 20 18 15 11 8 9 10 10
82 88 90 73 43 36 39 42 34 28 24 22 21 18 16 14 14 14 12 11 11 11 11 10 9 6 5 5 5 6 6 5 5 6 6 7 12 20 27 29 26 28 28 20 10 12 12 12 12
78 70 84 76 45 32 38 42 34 28 24 23 20 17 16 15 15 13 10 9 7 6 5 5 5 4 5 5 6 6 6 6 5 6 6 7 8 16 24 27 20 25 28 18 15 15 13 11 13
80 67 93 72 58 37 38 44 35 31 28 22 19 18 16 16 14 12 10 8 6 6 6 6 6 6 6 6 8 7 6 6 6 7 12 10 9 13 21 20 16 22 25 16 15 17 12 10 11
97 74 85 75 53 44 39 38 42 32 26 25 21 19 18 16 14 12 10 8 7 8 7 7 8 7 7 7 7 7 9 9 8 7 7 10 26 16 12 22 24 18 18 15 11 12 11 10 12
72 84 78 92 79 49 41 37 39 37 27 24 22 21 19 17 15 13 10 9 8 9 11 12 14 12 9 9 10 17 10 8 8 8 8 12 21 40 39 23 27 38 37 23 22 13 12 10 16
48 81 90 97 96 64 45 36 33 39 31 25 22 20 19 19 18 15 12 10 9 9 8 9 9 9 9 9 9 9 6 6 7 10 11 13 24 36 42 40 35 27 37 35 28 22 13 13 20
46 64 92 98 96 80 50 39 40 41 34 26 23 22 19 20 20 18 14 11 9 10 11 11 10 9 8 8 8 8 8 7 7 8 9 16 18 29 41 50 53 52 44 41 44 38 15 12 22
61 45 88 98 94 91 59 44 38 41 41 36 31 25 21 21 20 22 18 13 10 10 10 10 10 10 9 9 8 14 17 18 17 13 12 16 20 27 32 44 45 50 56 55 52 58 62 36 24
76 71 82 73 82 95 66 48 42 37 41 39 34 27 22 20 19 21 20 16 11 10 11 11 12 12 11 10 9 9 10 12 13 11 17 19 16 16 15 21 34 49 47 53 68 66 67 68 48
52 67 72 58 54 84 83 59 49 38 35 33 31 27 22 19 19 15 17 16 12 11 11 12 13 12 11 10 9 10 9 10 10 8 10 11 12 14 16 13 13 17 23 47 60 68 75 83 76
50 57 70 76 54 62 93 70 53 49 32 24 22 20 18 15 13 12 13 12 12 11 10 12 12 11 11 10 10 9 9 9 9 8 9 10 12 13 14 16 14 18 18 30 46 51 53 62 79
48 42 46 56 65 39 58 78 73 52 33 20 18 17 16 14 12 11 10 10 10 10 11 11 11 10 10 9 9 8 8 8 8 9 9 10 12 10 10 10 12 12 14 16 38 48 60 61 64
46 38 36 31 75 33 32 38 79 62 38 27 21 19 18 16 17 20 14 12 11 11 11 10 10 9 8 8 8 8 8 8 8 8 8 10 12 14 14 13 16 28 36 47 66 68 87 90 78
68 42 33 28 54 65 24 24 31 32 53 54 46 25 17 13 14 15 13 12 12 11 10 9 8 8 13 15 15 14 13 12 12 11 10 9 10 12 15 16 15 17 19 39 58 75 86 89 76
72 49 40 32 27 51 40 21 20 20 18 16 15 15 14 13 12 11 11 11 10 9 8 9 12 15 15 14 13 12 11 10 10 10 9 9 9 9 12 16 19 22 26 28 31 55 79 97 94
73 51 42 38 33 29 40 32 23 19 18 17 15 13 12 11 11 11 10 10 9 10 14 17 17 16 15 13 11 9 8 8 8 9 11 14 17 21 21 19 16 14 15 21 31 36 42 62 95
100 58 45 38 34 30 29 28 26 22 18 16 14 13 12 11 10 10 9 11 14 17 19 18 16 13 10 9 8 8 9 11 12 13 12 13 14 14 16 21 29 36 33 22 19 21 33 45 51
88 76 51 44 38 35 33 28 24 20 17 15 13 12 11 10 10 12 14 18 20 19 16 12 10 9 10 9 9 11 11 11 12 10 9 9 13 16 20 19 16 20 24 42 53 38 30 40 46
96 86 76 60 54 48 42 34 27 22 17 14 13 13 14 15 16 18 20 20 16 12 10 10 10 10 10 11 10 10 12 9 8 12 16 18 20 20 24 32 36 34 26 33 53 63 62 63 51
98 100 99 98 89 85 66 51 31 26 22 18 18 20 19 20 22 20 16 11 10 10 10 11 12 11 10 10 12 11 8 11 13 23 26 19 18 20 26 35 40 56 54 54 50 49 63 81 74
100 95 98 94 88 69 56 37 33 27 26 26 24 23 22 19 14 11 10 10 10 13 12 11 9 10 15 13 11 8 14 23 28 29 22 19 16 22 39 52 82 100 100 77 51 54 70 71 84
Wind_Speed
44 41 40 39 37 37 34 36 33 32 31 32 27 26 27 26 25 23 19 16 16 15 15 15 15 15 15 14 13 13 14 15 16 17 17 17 16 16 16 17 18 19 21 22 22 23 23 22 22
45 44 42 40 40 38 34 35 34 34 33 28 28 27 26 27 24 21 19 18 18 17 17 16 16 16 17 16 16 15 15 15 15 16 17 17 18 18 18 18 18 18 19 20 20 20 20 20 19
45 45 45 43 43 41 36 41 38 34 33 31 29 29 28 29 23 21 20 19 19 18 18 16 16 17 16 14 14 14 13 14 15 15 16 17 18 18 19 20 20 21 21 21 20 20 19 19 18
44 46 47 47 44 41 41 43 41 35 35 33 30 30 28 27 25 23 21 20 21 20 19 17 16 16 16 15 15 15 16 16 17 17 18 19 19 19 20 20 20 21 22 23 23 23 22 21 21
45 47 48 48 45 41 42 44 41 39 36 35 33 33 32 28 26 25 24 22 22 21 19 18 17 17 18 18 18 18 18 19 20 22 21 20 19 20 19 19 19 20 21 22 22 22 21 21 21
51 47 49 49 46 43 42 43 41 40 39 36 35 33 34 30 28 26 25 23 23 22 21 20 20 21 22 22 22 20 21 22 22 20 20 19 19 18 18 18 17 18 19 21 21 21 21 21 21
48 51 49 48 47 43 42 43 41 40 39 37 39 32 33 31 28 26 26 25 24 23 24 24 25 25 25 26 25 25 23 23 23 21 20 20 18 17 17 17 18 19 20 20 20 20 20 21 20
38 47 48 48 44 40 40 44 41 41 38 41 34 33 34 29 29 28 27 26 26 27 28 29 28 28 29 29 28 28 27 26 24 23 20 20 19 19 19 19 20 19 20 20 20 20 20 20 21
48 50 55 48 42 39 43 45 43 43 41 36 37 38 29 28 28 28 28 28 29 29 30 30 30 31 30 31 31 30 29 26 25 25 23 22 21 21 21 21 21 21 20 20 21 21 21 22 22
42 50 46 40 38 40 46 41 45 42 41 39 36 36 32 31 29 29 30 31 31 31 32 32 32 33 32 30 31 30 29 27 26 27 27 25 24 24 23 23 23 21 22 22 22 22 23 24 24
44 48 47 45 42 42 45 44 49 43 44 40 38 38 33 31 30 30 31 31 30 29 30 31 31 31 31 30 29 29 28 28 28 28 28 28 27 27 25 24 24 23 23 23 24 25 26 26 25
47 46 51 49 42 38 44 45 49 46 44 45 41 33 33 32 31 31 30 29 28 28 29 30 30 30 30 30 30 29 29 30 30 31 30 30 29 28 28 26 25 25 26 25 26 27 28 28 28
50 50 49 50 39 40 46 48 45 47 48 42 39 37 35 33 32 32 31 28 27 29 31 31 30 30 30 31 31 31 31 31 31 32 32 32 31 30 29 28 27 27 28 27 28 29 30 31 30
50 53 48 50 41 43 45 48 48 45 48 42 41 39 37 34 33 32 30 28 28 30 30 30 29 31 31 32 32 34 34 34 35 34 33 33 34 31 31 30 30 30 29 31 31 32 32 32 32
48 54 48 49 44 43 45 49 47 46 46 44 42 41 38 34 32 30 30 30 30 31 31 31 31 30 31 32 33 34 36 36 36 37 36 35 34 35 35 34 33 34 33 34 34 35 35 34 34
46 51 50 47 48 46 42 44 48 47 46 45 44 42 39 35 32 31 31 33 34 34 34 34 33 32 33 34 35 37 37 38 39 38 37 37 39 38 38 39 36 37 37 36 37 38 37 35 36
50 46 48 47 46 49 44 44 48 45 45 44 43 42 40 37 35 34 35 36 37 37 37 36 35 34 35 35 36 38 39 39 39 40 40 39 41 42 43 42 41 42 41 40 41 41 40 39 37
48 49 46 42 45 44 49 40 46 42 41 42 43 43 42 40 38 38 38 38 37 38 37 36 36 36 36 38 37 38 39 41 41 42 42 43 44 44 45 46 46 46 47 45 45 45 45 44 41
50 46 43 39 41 40 50 43 39 36 38 41 42 43 42 42 41 40 38 37 38 38 38 38 38 38 38 40 41 39 41 42 44 45 46 48 48 48 47 47 48 48 48 48 49 50 48 47 46
49 44 44 41 38 37 40 51 45 38 37 37 38 38 40 41 40 38 38 38 37 37 38 38 39 40 41 42 43 43 42 43 44 46 48 49 49 51 51 50 51 51 51 51 51 54 53 53 49
48 44 45 40 37 37 37 42 46 42 37 35 34 33 34 36 38 37 38 39 39 39 39 39 40 41 43 44 44 44 44 43 43 44 47 51 54 56 55 54 54 55 55 53 53 55 54 55 54
47 45 43 41 38 38 38 39 42 41 37 35 35 34 34 35 36 36 37 39 40 40 41 41 41 42 42 42 42 43 44 44 44 46 48 50 53 56 59 58 57 57 57 54 55 56 54 54 54
52 44 42 39 40 39 36 38 39 37 38 39 40 37 35 34 35 38 40 41 41 41 41 41 41 41 40 41 41 43 43 44 46 47 48 49 51 53 55 58 60 59 59 58 59 57 57 58 58
47 44 42 41 39 42 39 36 40 35 36 35 36 37 37 37 38 38 39 38 39 39 39 39 40 40 40 40 41 41 43 44 46 46 48 49 50 52 53 55 57 59 61 62 62 62 60 60 60
44 43 43 43 42 42 42 41 42 35 35 33 34 34 36 36 37 38 37 37 36 36 36 37 38 39 40 40 41 41 42 43 45 47 49 51 52 55 56 60 62 62 63 63 64 64 65 65 64
41 41 42 42 44 44 42 42 45 39 36 35 35 35 35 35 35 34 33 33 34 35 37 37 38 38 39 39 41 42 44 45 47 50 52 55 56 57 60 62 63 65 67 69 68 65 65 66 68
31 37 36 37 40 40 40 41 39 38 36 35 35 33 32 31 31 31 32 32 33 35 35 34 35 36 38 40 42 43 45 47 49 50 50 49 53 54 57 61 64 65 66 66 68 70 67 65 66
24 28 34 36 35 36 37 38 38 35 33 33 33 32 31 30 30 31 31 32 31 31 31 33 35 37 38 40 42 42 42 41 43 46 51 52 55 60 64 68 70 72 70 68 67 64 66 65 65
23 26 25 26 30 30 30 32 35 32 32 32 31 31 30 29 29 29 29 27 28 30 33 34 35 35 37 38 38 38 35 43 45 48 49 52 59 65 69 72 71 74 72 65 64 62 63 67 63
23 23 26 25 25 24 27 29 30 29 30 30 30 31 29 28 26 26 25 27 28 30 31 32 33 32 32 36 35 34 39 43 47 46 48 55 60 67 76 65 61 63 53 55 58 57 55 59 62
Wind_Direction
219 218 219 219 218 220 217 220 219 219 217 217 217 219 223 226 225 225 228 238 242 246 248 252 257 263 271 276 281 282 281 279 280 280 282 284 285 286 286 286 284 285 285 282 282 283 287 289 291
218 219 219 220 220 218 221 224 220 221 222 218 219 218 220 230 226 226 234 237 240 248 252 260 265 267 269 271 277 281 283 285 286 287 286 287 288 289 290 291 293 294 292 291 289 288 289 291 293
215 219 219 219 220 218 217 222 222 222 223 220 218 219 222 229 227 226 232 235 242 247 253 257 262 264 268 270 275 278 281 283 281 283 285 286 287 288 289 290 291 295 296 295 295 295 294 293 294
215 217 220 219 220 219 218 223 224 222 223 222 221 223 224 223 226 229 233 237 243 245 251 252 253 255 259 262 266 270 274 278 281 282 284 286 286 285 286 285 287 288 290 291 292 293 293 293 292
221 220 221 219 219 219 221 224 222 223 225 225 222 224 224 225 228 231 236 237 241 245 246 248 251 256 261 263 264 270 274 278 283 285 283 282 281 281 282 283 282 282 283 285 286 286 289 292 293
223 223 221 220 217 218 223 226 224 223 224 226 225 224 226 227 229 230 232 234 233 237 241 246 252 257 261 261 264 269 274 276 277 276 276 274 275 278 281 282 284 286 285 286 287 289 290 291 292
229 224 223 223 217 215 221 226 226 225 224 226 229 229 227 226 226 226 227 227 228 233 240 246 252 257 261 267 273 276 275 275 274 270 269 272 275 276 280 283 285 287 289 288 288 287 287 288 287
210 219 223 222 220 214 218 225 225 225 225 226 226 225 226 219 223 223 228 231 232 236 240 247 253 259 264 269 272 275 275 273 273 275 274 274 274 276 278 279 283 288 288 290 290 289 286 283 283
216 216 217 220 218 211 216 221 223 224 225 222 222 227 228 223 226 229 231 236 243 249 255 259 262 265 271 276 278 277 275 276 278 279 278 275 274 275 277 280 284 287 287 287 289 289 286 283 282
223 219 217 219 218 212 218 218 223 222 224 223 221 226 225 225 231 236 240 242 246 252 258 263 268 271 272 273 275 276 278 280 278 278 278 277 275 275 275 277 279 283 287 291 288 284 281 281 283
219 221 221 220 214 212 215 216 222 219 223 223 223 224 226 228 233 238 242 245 249 253 256 259 262 265 268 269 270 273 278 280 281 280 279 279 276 276 277 277 280 281 283 283 283 282 282 283 282
217 220 221 222 213 210 215 215 221 220 222 223 223 226 227 232 235 239 242 244 246 248 251 253 255 257 261 264 268 273 275 277 280 280 281 281 278 277 277 278 279 279 280 280 281 282 282 282 282
215 220 222 222 212 212 214 214 220 221 224 223 223 225 228 231 236 240 241 242 242 243 247 251 254 259 263 266 269 271 272 274 276 279 280 279 280 280 281 280 279 279 280 281 280 280 280 281 281
215 222 221 222 215 214 213 217 219 223 226 223 224 225 228 232 236 240 242 241 241 244 249 254 259 262 265 268 270 271 273 273 273 273 275 278 278 280 281 281 281 281 280 280 280 279 279 281 280
215 222 219 222 215 211 216 217 219 223 228 226 227 229 230 232 237 240 241 243 247 250 252 253 255 261 267 272 274 275 275 275 274 275 276 273 272 275 276 279 281 281 279 280 281 281 283 283 281
216 220 220 223 220 210 218 216 221 222 226 229 231 233 235 237 238 239 241 243 245 246 248 252 257 261 264 269 272 275 278 279 278 278 276 276 276 274 275 276 276 277 278 278 278 279 281 279 280
214 218 221 224 223 217 216 221 226 223 228 233 236 239 240 240 239 241 242 243 244 247 251 255 261 267 271 273 275 277 278 279 282 280 280 278 276 276 274 273 271 272 273 274 274 274 275 275 275
216 219 219 222 229 224 211 222 227 224 229 234 238 241 243 244 244 245 245 246 247 249 254 260 264 265 267 269 271 276 279 282 279 278 278 275 275 276 276 276 276 274 275 275 274 274 273 274 274
213 216 217 220 226 229 214 221 228 227 230 233 237 240 244 247 250 249 249 247 246 249 254 257 262 266 269 272 273 274 276 277 280 279 278 278 278 277 277 276 275 275 273 272 273 274 274 275 274
213 213 218 216 218 225 226 219 228 229 231 235 238 242 244 246 250 253 254 253 251 251 252 258 263 267 271 273 275 276 273 276 277 279 280 279 278 276 275 274 274 274 273 272 271 271 271 271 272
213 211 216 217 216 223 232 227 226 232 232 234 240 246 248 250 251 253 254 255 255 257 260 263 267 270 272 274 275 276 276 273 272 272 272 274 275 276 276 275 273 271 271 270 269 268 268 269 269
214 213 215 216 215 224 225 229 230 229 233 236 239 245 251 254 255 258 260 260 261 264 266 269 271 272 273 275 275 275 276 277 275 272 269 269 271 274 277 277 275 273 272 270 267 265 264 265 267
215 213 215 217 216 221 225 230 235 233 236 239 242 246 248 251 256 259 259 261 263 266 269 271 272 272 273 273 273 273 273 272 271 271 272 272 271 271 271 273 275 275 273 270 267 266 266 265 264
211 214 215 218 217 221 228 231 238 232 235 236 239 243 247 250 252 256 259 262 264 265 267 269 272 274 275 275 275 275 276 277 276 277 278 278 275 272 271 271 269 268 270 271 270 267 265 265 263
211 213 216 220 221 222 222 232 239 236 241 243 246 247 249 251 254 256 258 261 264 265 267 269 271 273 275 277 278 278 278 279 281 281 280 279 278 278 277 274 270 268 267 267 266 265 264 266 266
212 214 218 221 224 228 229 233 237 243 247 247 248 247 248 250 253 256 258 259 261 265 267 270 273 275 278 279 279 281 283 284 283 283 283 282 282 280 277 274 273 271 268 265 263 263 264 263 263
212 214 220 226 230 233 234 238 240 243 246 248 247 247 248 248 249 250 253 258 262 265 269 272 273 274 275 278 281 283 285 286 287 286 286 285 284 285 285 280 276 272 268 266 263 261 259 260 262
206 212 220 225 231 236 241 241 242 242 244 245 245 244 243 243 245 249 254 258 263 266 268 271 274 277 280 282 285 286 286 288 291 293 293 293 291 291 287 282 276 271 267 267 263 261 256 258 258
203 210 213 221 224 226 236 235 238 235 235 235 237 238 240 242 246 252 256 259 261 266 269 272 274 278 282 283 284 285 285 296 291 294 290 291 292 292 286 283 277 270 265 260 259 259 257 255 255
215 222 220 219 220 223 224 234 227 225 226 230 234 239 244 247 250 253 258 262 266 269 271 274 280 281 284 288 286 287 291 292 289 292 293 295 297 296 294 285 278 272 266 266 262 258 253 253 254